Location: Cambridge
(43.3830°N, 80.3170°W)
Time: 22:23:15
(UTC-04:00)

Tiangong 2 - Pass Details

Date: 22 March 2019
Orbit: 378 x 389 km, 42.8° (Epoch: 19 April)

Event Time Altitude Azimuth Distance (km) Brightness Sun altitude
Exits shadow 05:20:09 22° 132° (SE) 895 3.1 -22.2°
Drops below altitude 10° 05:21:29 10° 122° (ESE) 1,398 4.3 -22.0°
Sets 05:23:36 0° 116° (ESE) 2,251 5.5 -21.7°
